Location: Umburanas
(4.5000°S, 37.9667°W)
Time: 23:48:38
(UTC+00:00)

TIMED - Pass Details

Date: 19 November 2019
Orbit: 603 x 604 km, 74.1° (Epoch: 12 December)

Event Time Altitude Azimuth Distance (km) Brightness Sun altitude
Rises 21:51:33 0° 191° (S) 2,856 8.4 -20.4°
Reaches altitude 10° 21:53:47 10° 190° (S) 1,950 7.5 -21.0°
Maximum altitude 21:58:09 81° 103° (ESE) 613 4.3 -22.0°
Enters shadow 21:58:46 64° 31° (NNE) 668 4.4 -22.1°
